This is the latest recevied weather packets stored in our database for station/object K7CTM. If no packets are shown the sender has not sent any weather packets the latest 10 day(s).
| Time | Temp. | Humidity | Pressure | Rain* | Wind** | Luminosity | Snow |
|---|---|---|---|---|---|---|---|
| 1777933605 | 10.56° C | 43% | 1023.9 hPa | 0 mm | - | 104 W/m² | - |
| 1777933302 | 10.56° C | 42% | 1023.9 hPa | 0 mm | - | 111 W/m² | - |
| 1777933000 | 10.56° C | 42% | 1023.9 hPa | 0 mm | - | 119 W/m² | - |
| 1777932696 | 11.11° C | 42% | 1023.9 hPa | 0 mm | - | 113 W/m² | - |
| 1777932393 | 11.11° C | 42% | 1023.9 hPa | 0 mm | - | 141 W/m² | - |
| 1777932091 | 11.11° C | 41% | 1023.9 hPa | 0 mm | - | 167 W/m² | - |
| 1777931786 | 11.67° C | 39% | 1024 hPa | 0 mm | - | 173 W/m² | - |
| 1777931484 | 11.11° C | 40% | 1023.8 hPa | 0 mm | - | 236 W/m² | - |
| 1777931180 | 11.11° C | 40% | 1024 hPa | 0 mm | - | 230 W/m² | - |
| 1777930876 | 11.11° C | 39% | 1024 hPa | 0 mm | - | 230 W/m² | - |
| 1777930573 | 11.11° C | 42% | 1024 hPa | 0 mm | - | 237 W/m² | - |
| 1777930270 | 11.11° C | 42% | 1024.1 hPa | 0 mm | - | 192 W/m² | - |
| 1777929966 | 11.67° C | 42% | 1024.3 hPa | 0 mm | - | 197 W/m² | - |
| 1777929663 | 11.67° C | 41% | 1024.1 hPa | 0 mm | - | 237 W/m² | - |
| 1777929360 | 11.67° C | 42% | 1024.4 hPa | 0 mm | - | 276 W/m² | - |
| 1777929057 | 11.11° C | 43% | 1024.1 hPa | 0 mm | - | 332 W/m² | - |
| 1777928754 | 11.11° C | 43% | 1024.4 hPa | 0 mm | - | 251 W/m² | - |
| 1777928451 | 11.67° C | 41% | 1024.4 hPa | 0 mm | - | 291 W/m² | - |
| 1777928148 | 12.22° C | 42% | 1024.3 hPa | 0 mm | - | 393 W/m² | - |
| 1777927846 | 11.67° C | 43% | 1024.4 hPa | 0 mm | - | 314 W/m² | - |
| 1777927544 | 11.11° C | 43% | 1024.7 hPa | 0 mm | - | 271 W/m² | - |
| 1777927243 | 11.11° C | 44% | 1024.1 hPa | 0 mm | - | 257 W/m² | - |
| 1777926941 | 11.11° C | 44% | 1024.4 hPa | 0 mm | - | 207 W/m² | - |
| 1777926638 | 11.11° C | 42% | 1024.5 hPa | 0 mm | - | 176 W/m² | - |
| 1777926333 | 11.67° C | 43% | 1024.1 hPa | 0 mm | - | 190 W/m² | - |
* Rain latest hour (hover to see other rain measurements)
** Current wind speed in m/s (hover to see current wind gust speed)